Year,Month,Day,Hour,Minute,Value (Times are PST for insolation in W/m^2)
2016,12,08,00,00,0.00
2016,12,08,00,01,0.00
2016,12,08,00,02,0.00
2016,12,08,00,03,0.00
2016,12,08,00,04,0.00
2016,12,08,00,05,0.00
2016,12,08,00,06,0.00
2016,12,08,00,07,0.00
2016,12,08,00,08,0.00
2016,12,08,00,09,0.00
2016,12,08,00,10,0.00
2016,12,08,00,11,0.00
2016,12,08,00,12,0.00
2016,12,08,00,13,0.00
2016,12,08,00,14,0.00
2016,12,08,00,15,0.00
2016,12,08,00,16,0.00
2016,12,08,00,17,0.00
2016,12,08,00,18,0.00
2016,12,08,00,19,0.00
2016,12,08,00,20,0.00
2016,12,08,00,21,0.00
2016,12,08,00,22,0.00
2016,12,08,00,23,0.00
2016,12,08,00,24,0.00
2016,12,08,00,25,0.00
2016,12,08,00,26,0.00
2016,12,08,00,27,0.00
2016,12,08,00,28,0.00
2016,12,08,00,29,0.00
2016,12,08,00,30,0.00
2016,12,08,00,31,0.00
2016,12,08,00,32,0.00
2016,12,08,00,33,0.00
2016,12,08,00,34,0.00
2016,12,08,00,35,0.00
2016,12,08,00,36,0.00
2016,12,08,00,37,0.00
2016,12,08,00,38,0.00
2016,12,08,00,39,0.00
2016,12,08,00,40,0.00
2016,12,08,00,41,0.00
2016,12,08,00,42,0.00
2016,12,08,00,43,0.00
2016,12,08,00,44,0.00
2016,12,08,00,45,0.00
2016,12,08,00,46,0.00
2016,12,08,00,47,0.00
2016,12,08,00,48,0.00
2016,12,08,00,49,0.00
2016,12,08,00,50,0.00
2016,12,08,00,51,0.00
2016,12,08,00,52,0.00
2016,12,08,00,53,0.00
2016,12,08,00,54,0.00
2016,12,08,00,55,0.00
2016,12,08,00,56,0.00
2016,12,08,00,57,0.00
2016,12,08,00,58,0.00
2016,12,08,00,59,0.00
2016,12,08,01,00,0.00
2016,12,08,01,01,0.00
2016,12,08,01,02,0.00
2016,12,08,01,03,0.00
2016,12,08,01,04,0.00
2016,12,08,01,05,0.00
2016,12,08,01,06,0.00
2016,12,08,01,07,0.00
2016,12,08,01,08,0.00
2016,12,08,01,09,0.00
2016,12,08,01,10,0.00
2016,12,08,01,11,0.00
2016,12,08,01,12,0.00
2016,12,08,01,13,0.00
2016,12,08,01,14,0.00
2016,12,08,01,15,0.00
2016,12,08,01,16,0.00
2016,12,08,01,17,0.00
2016,12,08,01,18,0.00
2016,12,08,01,19,0.00
2016,12,08,01,20,0.00
2016,12,08,01,21,0.00
2016,12,08,01,22,0.00
2016,12,08,01,23,0.00
2016,12,08,01,24,0.00
2016,12,08,01,25,0.00
2016,12,08,01,26,0.00
2016,12,08,01,27,0.00
2016,12,08,01,28,0.00
2016,12,08,01,29,0.00
2016,12,08,01,30,0.00
2016,12,08,01,31,0.00
2016,12,08,01,32,0.00
2016,12,08,01,33,0.00
2016,12,08,01,34,0.00
2016,12,08,01,35,0.00
2016,12,08,01,36,0.00
2016,12,08,01,37,0.00
2016,12,08,01,38,0.00
2016,12,08,01,39,0.00
2016,12,08,01,40,0.00
2016,12,08,01,41,0.00
2016,12,08,01,42,0.00
2016,12,08,01,43,0.00
2016,12,08,01,44,0.00
2016,12,08,01,45,0.00
2016,12,08,01,46,0.00
2016,12,08,01,47,0.00
2016,12,08,01,48,0.00
2016,12,08,01,49,0.00
2016,12,08,01,50,0.00
2016,12,08,01,51,0.00
2016,12,08,01,52,0.00
2016,12,08,01,53,0.00
2016,12,08,01,54,0.00
2016,12,08,01,55,0.00
2016,12,08,01,56,0.00
2016,12,08,01,57,0.00
2016,12,08,01,58,0.00
2016,12,08,01,59,0.00
2016,12,08,02,00,0.00
2016,12,08,02,01,0.00
2016,12,08,02,02,0.00
2016,12,08,02,03,0.00
2016,12,08,02,04,0.00
2016,12,08,02,05,0.00
2016,12,08,02,06,0.00
2016,12,08,02,07,0.00
2016,12,08,02,08,0.00
2016,12,08,02,09,0.00
2016,12,08,02,10,0.00
2016,12,08,02,11,0.00
2016,12,08,02,12,0.00
2016,12,08,02,13,0.00
2016,12,08,02,14,0.00
2016,12,08,02,15,0.00
2016,12,08,02,16,0.00
2016,12,08,02,17,0.00
2016,12,08,02,18,0.00
2016,12,08,02,19,0.00
2016,12,08,02,20,0.00
2016,12,08,02,21,0.00
2016,12,08,02,22,0.00
2016,12,08,02,23,0.00
2016,12,08,02,24,0.00
2016,12,08,02,25,0.00
2016,12,08,02,26,0.00
2016,12,08,02,27,0.00
2016,12,08,02,28,0.00
2016,12,08,02,29,0.00
2016,12,08,02,30,0.00
2016,12,08,02,31,0.00
2016,12,08,02,32,0.00
2016,12,08,02,33,0.00
2016,12,08,02,34,0.00
2016,12,08,02,35,0.00
2016,12,08,02,36,0.00
2016,12,08,02,37,0.00
2016,12,08,02,38,0.00
2016,12,08,02,39,0.00
2016,12,08,02,40,0.00
2016,12,08,02,41,0.00
2016,12,08,02,42,0.00
2016,12,08,02,43,0.00
2016,12,08,02,44,0.00
2016,12,08,02,45,0.00
2016,12,08,02,46,0.00
2016,12,08,02,47,0.00
2016,12,08,02,48,0.00
2016,12,08,02,49,0.00
2016,12,08,02,50,0.00
2016,12,08,02,51,0.00
2016,12,08,02,52,0.00
2016,12,08,02,53,0.00
2016,12,08,02,54,0.00
2016,12,08,02,55,0.00
2016,12,08,02,56,0.00
2016,12,08,02,57,0.00
2016,12,08,02,58,0.00
2016,12,08,02,59,0.00
2016,12,08,03,00,0.00
2016,12,08,03,01,0.00
2016,12,08,03,02,0.00
2016,12,08,03,03,0.00
2016,12,08,03,04,0.00
2016,12,08,03,05,0.00
2016,12,08,03,06,0.00
2016,12,08,03,07,0.00
2016,12,08,03,08,0.00
2016,12,08,03,09,0.00
2016,12,08,03,10,0.00
2016,12,08,03,11,0.00
2016,12,08,03,12,0.00
2016,12,08,03,13,0.00
2016,12,08,03,14,0.00
2016,12,08,03,15,0.00
2016,12,08,03,16,0.00
2016,12,08,03,17,0.00
2016,12,08,03,18,0.00
2016,12,08,03,19,0.00
2016,12,08,03,20,0.00
2016,12,08,03,21,0.00
2016,12,08,03,22,0.00
2016,12,08,03,23,0.00
2016,12,08,03,24,0.00
2016,12,08,03,25,0.00
2016,12,08,03,26,0.00
2016,12,08,03,27,0.00
2016,12,08,03,28,0.00
2016,12,08,03,29,0.00
2016,12,08,03,30,0.00
2016,12,08,03,31,0.00
2016,12,08,03,32,0.00
2016,12,08,03,33,0.00
2016,12,08,03,34,0.00
2016,12,08,03,35,0.00
2016,12,08,03,36,0.00
2016,12,08,03,37,0.00
2016,12,08,03,38,0.00
2016,12,08,03,39,0.00
2016,12,08,03,40,0.00
2016,12,08,03,41,0.00
2016,12,08,03,42,0.00
2016,12,08,03,43,0.00
2016,12,08,03,44,0.00
2016,12,08,03,45,0.00
2016,12,08,03,46,0.00
2016,12,08,03,47,0.00
2016,12,08,03,48,0.00
2016,12,08,03,49,0.00
2016,12,08,03,50,0.00
2016,12,08,03,51,0.00
2016,12,08,03,52,0.00
2016,12,08,03,53,0.00
2016,12,08,03,54,0.00
2016,12,08,03,55,0.00
2016,12,08,03,56,0.00
2016,12,08,03,57,0.00
2016,12,08,03,58,0.00
2016,12,08,03,59,0.00
2016,12,08,04,00,0.00
2016,12,08,04,01,0.00
2016,12,08,04,02,0.00
2016,12,08,04,03,0.00
2016,12,08,04,04,0.00
2016,12,08,04,05,0.00
2016,12,08,04,06,0.00
2016,12,08,04,07,0.00
2016,12,08,04,08,0.00
2016,12,08,04,09,0.00
2016,12,08,04,10,0.00
2016,12,08,04,11,0.00
2016,12,08,04,12,0.00
2016,12,08,04,13,0.00
2016,12,08,04,14,0.00
2016,12,08,04,15,0.00
2016,12,08,04,16,0.00
2016,12,08,04,17,0.00
2016,12,08,04,18,0.00
2016,12,08,04,19,0.00
2016,12,08,04,20,0.00
2016,12,08,04,21,0.00
2016,12,08,04,22,0.00
2016,12,08,04,23,0.00
2016,12,08,04,24,0.00
2016,12,08,04,25,0.00
2016,12,08,04,26,0.00
2016,12,08,04,27,0.00
2016,12,08,04,28,0.00
2016,12,08,04,29,0.00
2016,12,08,04,30,0.00
2016,12,08,04,31,0.00
2016,12,08,04,32,0.00
2016,12,08,04,33,0.00
2016,12,08,04,34,0.00
2016,12,08,04,35,0.00
2016,12,08,04,36,0.00
2016,12,08,04,37,0.00
2016,12,08,04,38,0.00
2016,12,08,04,39,0.00
2016,12,08,04,40,0.00
2016,12,08,04,41,0.00
2016,12,08,04,42,0.00
2016,12,08,04,43,0.00
2016,12,08,04,44,0.00
2016,12,08,04,45,0.00
2016,12,08,04,46,0.00
2016,12,08,04,47,0.00
2016,12,08,04,48,0.00
2016,12,08,04,49,0.00
2016,12,08,04,50,0.00
2016,12,08,04,51,0.00
2016,12,08,04,52,0.00
2016,12,08,04,53,0.00
2016,12,08,04,54,0.00
2016,12,08,04,55,0.00
2016,12,08,04,56,0.00
2016,12,08,04,57,0.00
2016,12,08,04,58,0.00
2016,12,08,04,59,0.00
2016,12,08,05,00,0.00
2016,12,08,05,01,0.00
2016,12,08,05,02,0.00
2016,12,08,05,03,0.00
2016,12,08,05,04,0.00
2016,12,08,05,05,0.00
2016,12,08,05,06,0.00
2016,12,08,05,07,0.00
2016,12,08,05,08,0.00
2016,12,08,05,09,0.00
2016,12,08,05,10,0.00
2016,12,08,05,11,0.00
2016,12,08,05,12,0.00
2016,12,08,05,13,0.00
2016,12,08,05,14,0.00
2016,12,08,05,15,0.00
2016,12,08,05,16,0.00
2016,12,08,05,17,0.00
2016,12,08,05,18,0.00
2016,12,08,05,19,0.00
2016,12,08,05,20,0.00
2016,12,08,05,21,0.00
2016,12,08,05,22,0.00
2016,12,08,05,23,0.00
2016,12,08,05,24,0.00
2016,12,08,05,25,0.00
2016,12,08,05,26,0.00
2016,12,08,05,27,0.00
2016,12,08,05,28,0.00
2016,12,08,05,29,0.00
2016,12,08,05,30,0.00
2016,12,08,05,31,0.00
2016,12,08,05,32,0.00
2016,12,08,05,33,0.00
2016,12,08,05,34,0.00
2016,12,08,05,35,0.00
2016,12,08,05,36,0.00
2016,12,08,05,37,0.00
2016,12,08,05,38,0.00
2016,12,08,05,39,0.00
2016,12,08,05,40,0.00
2016,12,08,05,41,0.00
2016,12,08,05,42,0.00
2016,12,08,05,43,0.00
2016,12,08,05,44,0.00
2016,12,08,05,45,0.00
2016,12,08,05,46,0.00
2016,12,08,05,47,0.00
2016,12,08,05,48,0.00
2016,12,08,05,49,0.00
2016,12,08,05,50,0.00
2016,12,08,05,51,0.00
2016,12,08,05,52,0.00
2016,12,08,05,53,0.00
2016,12,08,05,54,0.00
2016,12,08,05,55,0.00
2016,12,08,05,56,0.00
2016,12,08,05,57,0.00
2016,12,08,05,58,0.00
2016,12,08,05,59,0.00
2016,12,08,06,00,0.00
2016,12,08,06,01,0.00
2016,12,08,06,02,0.00
2016,12,08,06,03,0.00
2016,12,08,06,04,0.00
2016,12,08,06,05,0.00
2016,12,08,06,06,0.00
2016,12,08,06,07,0.00
2016,12,08,06,08,0.00
2016,12,08,06,09,0.00
2016,12,08,06,10,0.00
2016,12,08,06,11,0.00
2016,12,08,06,12,0.00
2016,12,08,06,13,0.00
2016,12,08,06,14,0.00
2016,12,08,06,15,0.00
2016,12,08,06,16,0.00
2016,12,08,06,17,0.00
2016,12,08,06,18,0.00
2016,12,08,06,19,0.00
2016,12,08,06,20,0.00
2016,12,08,06,21,0.00
2016,12,08,06,22,0.00
2016,12,08,06,23,0.00
2016,12,08,06,24,0.00
2016,12,08,06,25,0.00
2016,12,08,06,26,0.00
2016,12,08,06,27,0.00
2016,12,08,06,28,0.00
2016,12,08,06,29,0.00
2016,12,08,06,30,0.00
2016,12,08,06,31,0.00
2016,12,08,06,32,0.00
2016,12,08,06,33,0.00
2016,12,08,06,34,0.00
2016,12,08,06,35,0.00
2016,12,08,06,36,0.00
2016,12,08,06,37,0.00
2016,12,08,06,38,0.00
2016,12,08,06,39,0.00
2016,12,08,06,40,0.00
2016,12,08,06,41,0.00
2016,12,08,06,42,0.00
2016,12,08,06,43,0.00
2016,12,08,06,44,0.00
2016,12,08,06,45,0.00
2016,12,08,06,46,0.00
2016,12,08,06,47,0.00
2016,12,08,06,48,0.00
2016,12,08,06,49,0.00
2016,12,08,06,50,0.00
2016,12,08,06,51,0.00
2016,12,08,06,52,0.00
2016,12,08,06,53,0.00
2016,12,08,06,54,0.00
2016,12,08,06,55,0.00
2016,12,08,06,56,0.00
2016,12,08,06,57,0.00
2016,12,08,06,58,0.00
2016,12,08,06,59,0.00
2016,12,08,07,00,0.00
2016,12,08,07,01,0.00
2016,12,08,07,02,0.00
2016,12,08,07,03,0.00
2016,12,08,07,04,0.00
2016,12,08,07,05,0.00
2016,12,08,07,06,0.00
2016,12,08,07,07,0.00
2016,12,08,07,08,0.00
2016,12,08,07,09,0.00
2016,12,08,07,10,0.00
2016,12,08,07,11,0.00
2016,12,08,07,12,0.00
2016,12,08,07,13,0.00
2016,12,08,07,14,0.00
2016,12,08,07,15,0.00
2016,12,08,07,16,0.00
2016,12,08,07,17,0.00
2016,12,08,07,18,0.00
2016,12,08,07,19,0.00
2016,12,08,07,20,0.00
2016,12,08,07,21,0.00
2016,12,08,07,22,0.00
2016,12,08,07,23,0.00
2016,12,08,07,24,0.00
2016,12,08,07,25,0.00
2016,12,08,07,26,0.00
2016,12,08,07,27,0.00
2016,12,08,07,28,0.00
2016,12,08,07,29,0.00
2016,12,08,07,30,0.00
2016,12,08,07,31,0.00
2016,12,08,07,32,0.00
2016,12,08,07,33,0.00
2016,12,08,07,34,0.00
2016,12,08,07,35,0.00
2016,12,08,07,36,0.00
2016,12,08,07,37,0.00
2016,12,08,07,38,0.00
2016,12,08,07,39,0.00
2016,12,08,07,40,0.00
2016,12,08,07,41,0.00
2016,12,08,07,42,0.00
2016,12,08,07,43,0.00
2016,12,08,07,44,0.00
2016,12,08,07,45,0.00
2016,12,08,07,46,0.00
2016,12,08,07,47,0.00
2016,12,08,07,48,0.00
2016,12,08,07,49,0.00
2016,12,08,07,50,0.00
2016,12,08,07,51,0.00
2016,12,08,07,52,0.00
2016,12,08,07,53,0.00
2016,12,08,07,54,0.00
2016,12,08,07,55,0.00
2016,12,08,07,56,0.00
2016,12,08,07,57,0.50
2016,12,08,07,58,5.00
2016,12,08,07,59,5.00
2016,12,08,08,00,5.00
2016,12,08,08,01,5.00
2016,12,08,08,02,6.50
2016,12,08,08,03,7.00
2016,12,08,08,04,7.00
2016,12,08,08,05,7.40
2016,12,08,08,06,9.00
2016,12,08,08,07,9.00
2016,12,08,08,08,9.00
2016,12,08,08,09,10.40
2016,12,08,08,10,11.00
2016,12,08,08,11,11.00
2016,12,08,08,12,11.20
2016,12,08,08,13,12.00
2016,12,08,08,14,12.00
2016,12,08,08,15,12.00
2016,12,08,08,16,13.50
2016,12,08,08,17,14.00
2016,12,08,08,18,14.20
2016,12,08,08,19,16.00
2016,12,08,08,20,16.60
2016,12,08,08,21,18.00
2016,12,08,08,22,18.00
2016,12,08,08,23,18.70
2016,12,08,08,24,19.00
2016,12,08,08,25,19.20
2016,12,08,08,26,21.00
2016,12,08,08,27,21.00
2016,12,08,08,28,21.90
2016,12,08,08,29,23.00
2016,12,08,08,30,23.00
2016,12,08,08,31,24.70
2016,12,08,08,32,25.10
2016,12,08,08,33,26.00
2016,12,08,08,34,26.70
2016,12,08,08,35,28.00
2016,12,08,08,36,29.20
2016,12,08,08,37,30.00
2016,12,08,08,38,30.00
2016,12,08,08,39,32.00
2016,12,08,08,40,33.00
2016,12,08,08,41,33.00
2016,12,08,08,42,33.90
2016,12,08,08,43,35.00
2016,12,08,08,44,36.40
2016,12,08,08,45,37.00
2016,12,08,08,46,37.20
2016,12,08,08,47,39.00
2016,12,08,08,48,39.00
2016,12,08,08,49,39.00
2016,12,08,08,50,39.00
2016,12,08,08,51,39.00
2016,12,08,08,52,39.00
2016,12,08,08,53,39.00
2016,12,08,08,54,39.00
2016,12,08,08,55,39.00
2016,12,08,08,56,39.00
2016,12,08,08,57,39.00
2016,12,08,08,58,39.00
2016,12,08,08,59,39.80
2016,12,08,09,00,40.00
2016,12,08,09,01,40.40
2016,12,08,09,02,42.00
2016,12,08,09,03,42.00
2016,12,08,09,04,42.00
2016,12,08,09,05,43.30
2016,12,08,09,06,44.00
2016,12,08,09,07,44.20
2016,12,08,09,08,46.20
2016,12,08,09,09,47.00
2016,12,08,09,10,47.90
2016,12,08,09,11,49.00
2016,12,08,09,12,50.40
2016,12,08,09,13,51.00
2016,12,08,09,14,52.90
2016,12,08,09,15,53.20
2016,12,08,09,16,54.00
2016,12,08,09,17,54.90
2016,12,08,09,18,57.10
2016,12,08,09,19,59.40
2016,12,08,09,20,62.40
2016,12,08,09,21,63.20
2016,12,08,09,22,65.00
2016,12,08,09,23,64.30
2016,12,08,09,24,63.90
2016,12,08,09,25,66.10
2016,12,08,09,26,68.40
2016,12,08,09,27,69.00
2016,12,08,09,28,69.00
2016,12,08,09,29,69.20
2016,12,08,09,30,71.40
2016,12,08,09,31,75.30
2016,12,08,09,32,76.40
2016,12,08,09,33,74.70
2016,12,08,09,34,74.00
2016,12,08,09,35,74.50
2016,12,08,09,36,79.80
2016,12,08,09,37,84.80
2016,12,08,09,38,91.20
2016,12,08,09,39,100.40
2016,12,08,09,40,101.10
2016,12,08,09,41,97.60
2016,12,08,09,42,104.70
2016,12,08,09,43,106.60
2016,12,08,09,44,105.70
2016,12,08,09,45,107.00
2016,12,08,09,46,109.40
2016,12,08,09,47,101.90
2016,12,08,09,48,99.60
2016,12,08,09,49,97.70
2016,12,08,09,50,94.00
2016,12,08,09,51,91.00
2016,12,08,09,52,91.00
2016,12,08,09,53,92.10
2016,12,08,09,54,89.70
2016,12,08,09,55,84.80
2016,12,08,09,56,83.10
2016,12,08,09,57,83.80
2016,12,08,09,58,85.40
2016,12,08,09,59,90.00
2016,12,08,10,00,91.70
2016,12,08,10,01,89.20
2016,12,08,10,02,71.80
2016,12,08,10,03,67.00
2016,12,08,10,04,68.90
2016,12,08,10,05,74.60
2016,12,08,10,06,69.60
2016,12,08,10,07,67.90
2016,12,08,10,08,65.60
2016,12,08,10,09,66.70
2016,12,08,10,10,69.40
2016,12,08,10,11,75.80
2016,12,08,10,12,86.30
2016,12,08,10,13,104.20
2016,12,08,10,14,124.90
2016,12,08,10,15,118.80
2016,12,08,10,16,119.10
2016,12,08,10,17,132.30
2016,12,08,10,18,160.20
2016,12,08,10,19,171.70
2016,12,08,10,20,187.40
2016,12,08,10,21,203.40
2016,12,08,10,22,209.80
2016,12,08,10,23,215.20
2016,12,08,10,24,216.10
2016,12,08,10,25,201.80
2016,12,08,10,26,218.10
2016,12,08,10,27,230.90
2016,12,08,10,28,229.20
2016,12,08,10,29,220.70
2016,12,08,10,30,210.70
2016,12,08,10,31,239.20
2016,12,08,10,32,219.80
2016,12,08,10,33,136.90
2016,12,08,10,34,114.90
2016,12,08,10,35,150.90
2016,12,08,10,36,163.50
2016,12,08,10,37,203.40
2016,12,08,10,38,179.80
2016,12,08,10,39,177.90
2016,12,08,10,40,170.10
2016,12,08,10,41,163.90
2016,12,08,10,42,167.30
2016,12,08,10,43,161.70
2016,12,08,10,44,158.00
2016,12,08,10,45,158.40
2016,12,08,10,46,171.40
2016,12,08,10,47,208.10
2016,12,08,10,48,247.30
2016,12,08,10,49,238.60
2016,12,08,10,50,194.40
2016,12,08,10,51,155.60
2016,12,08,10,52,147.60
2016,12,08,10,53,164.40
2016,12,08,10,54,181.00
2016,12,08,10,55,177.90
2016,12,08,10,56,172.80
2016,12,08,10,57,181.30
2016,12,08,10,58,187.60
2016,12,08,10,59,189.90
2016,12,08,11,00,191.90
2016,12,08,11,01,203.90
2016,12,08,11,02,213.20
2016,12,08,11,03,223.80
2016,12,08,11,04,231.10
2016,12,08,11,05,228.00
2016,12,08,11,06,222.60
2016,12,08,11,07,242.50
2016,12,08,11,08,238.80
2016,12,08,11,09,234.00
2016,12,08,11,10,235.10
2016,12,08,11,11,223.50
2016,12,08,11,12,206.80
2016,12,08,11,13,196.90
2016,12,08,11,14,192.30
2016,12,08,11,15,192.90
2016,12,08,11,16,188.20
2016,12,08,11,17,165.10
2016,12,08,11,18,153.70
2016,12,08,11,19,158.20
2016,12,08,11,20,169.60
2016,12,08,11,21,178.00
2016,12,08,11,22,175.70
2016,12,08,11,23,189.00
2016,12,08,11,24,197.00
2016,12,08,11,25,188.20
2016,12,08,11,26,163.90
2016,12,08,11,27,133.60
2016,12,08,11,28,134.80
2016,12,08,11,29,142.70
2016,12,08,11,30,154.10
2016,12,08,11,31,154.70
2016,12,08,11,32,163.70
2016,12,08,11,33,157.30
2016,12,08,11,34,149.80
2016,12,08,11,35,137.00
2016,12,08,11,36,133.70
2016,12,08,11,37,133.80
2016,12,08,11,38,135.40
2016,12,08,11,39,113.30
2016,12,08,11,40,105.00
2016,12,08,11,41,106.40
2016,12,08,11,42,104.90
2016,12,08,11,43,109.10
2016,12,08,11,44,96.80
2016,12,08,11,45,94.20
2016,12,08,11,46,93.70
2016,12,08,11,47,96.40
2016,12,08,11,48,105.90
2016,12,08,11,49,101.40
2016,12,08,11,50,107.70
2016,12,08,11,51,115.60
2016,12,08,11,52,125.30
2016,12,08,11,53,114.10
2016,12,08,11,54,103.30
2016,12,08,11,55,115.90
2016,12,08,11,56,109.50
2016,12,08,11,57,128.50
2016,12,08,11,58,131.40
2016,12,08,11,59,127.00
2016,12,08,12,00,148.70
2016,12,08,12,01,193.20
2016,12,08,12,02,260.40
2016,12,08,12,03,197.30
2016,12,08,12,04,201.40
2016,12,08,12,05,243.50
2016,12,08,12,06,269.60
2016,12,08,12,07,290.20
2016,12,08,12,08,289.00
2016,12,08,12,09,342.10
2016,12,08,12,10,305.20
2016,12,08,12,11,177.30
2016,12,08,12,12,180.70
2016,12,08,12,13,200.30
2016,12,08,12,14,201.20
2016,12,08,12,15,213.80
2016,12,08,12,16,247.40
2016,12,08,12,17,238.50
2016,12,08,12,18,242.60
2016,12,08,12,19,245.80
2016,12,08,12,20,240.90
2016,12,08,12,21,266.70
2016,12,08,12,22,320.50
2016,12,08,12,23,368.10
2016,12,08,12,24,375.40
2016,12,08,12,25,336.80
2016,12,08,12,26,322.90
2016,12,08,12,27,359.70
2016,12,08,12,28,357.00
2016,12,08,12,29,353.00
2016,12,08,12,30,344.70
2016,12,08,12,31,338.70
2016,12,08,12,32,344.90
2016,12,08,12,33,352.00
2016,12,08,12,34,356.60
2016,12,08,12,35,369.10
2016,12,08,12,36,378.70
2016,12,08,12,37,381.70
2016,12,08,12,38,398.60
2016,12,08,12,39,400.70
2016,12,08,12,40,395.90
2016,12,08,12,41,385.60
2016,12,08,12,42,332.70
2016,12,08,12,43,324.60
2016,12,08,12,44,338.70
2016,12,08,12,45,298.60
2016,12,08,12,46,282.10
2016,12,08,12,47,262.80
2016,12,08,12,48,230.90
2016,12,08,12,49,246.60
2016,12,08,12,50,264.10
2016,12,08,12,51,259.10
2016,12,08,12,52,243.50
2016,12,08,12,53,225.80
2016,12,08,12,54,224.30
2016,12,08,12,55,225.40
2016,12,08,12,56,246.90
2016,12,08,12,57,271.60
2016,12,08,12,58,249.60
2016,12,08,12,59,211.20
2016,12,08,13,00,230.90
2016,12,08,13,01,277.00
2016,12,08,13,02,349.60
2016,12,08,13,03,343.70
2016,12,08,13,04,321.30
2016,12,08,13,05,325.20
2016,12,08,13,06,330.40
2016,12,08,13,07,340.00
2016,12,08,13,08,360.40
2016,12,08,13,09,373.60
2016,12,08,13,10,375.30
2016,12,08,13,11,377.20
2016,12,08,13,12,352.20
2016,12,08,13,13,363.00
2016,12,08,13,14,365.30
2016,12,08,13,15,362.20
2016,12,08,13,16,359.40
2016,12,08,13,17,357.60
2016,12,08,13,18,353.80
2016,12,08,13,19,338.30
2016,12,08,13,20,323.70
2016,12,08,13,21,316.30
2016,12,08,13,22,306.70
2016,12,08,13,23,272.00
2016,12,08,13,24,232.10
2016,12,08,13,25,214.80
2016,12,08,13,26,199.60
2016,12,08,13,27,193.20
2016,12,08,13,28,208.10
2016,12,08,13,29,202.90
2016,12,08,13,30,195.00
2016,12,08,13,31,188.60
2016,12,08,13,32,185.80
2016,12,08,13,33,183.30
2016,12,08,13,34,181.20
2016,12,08,13,35,174.00
2016,12,08,13,36,173.10
2016,12,08,13,37,174.30
2016,12,08,13,38,184.60
2016,12,08,13,39,201.60
2016,12,08,13,40,227.40
2016,12,08,13,41,244.00
2016,12,08,13,42,249.70
2016,12,08,13,43,256.30
2016,12,08,13,44,268.00
2016,12,08,13,45,278.90
2016,12,08,13,46,286.60
2016,12,08,13,47,289.20
2016,12,08,13,48,285.60
2016,12,08,13,49,297.20
2016,12,08,13,50,305.00
2016,12,08,13,51,306.10
2016,12,08,13,52,292.80
2016,12,08,13,53,300.80
2016,12,08,13,54,309.50
2016,12,08,13,55,315.40
2016,12,08,13,56,311.20
2016,12,08,13,57,306.20
2016,12,08,13,58,298.90
2016,12,08,13,59,292.90
2016,12,08,14,00,294.50
2016,12,08,14,01,298.80
2016,12,08,14,02,297.20
2016,12,08,14,03,283.00
2016,12,08,14,04,257.30
2016,12,08,14,05,224.30
2016,12,08,14,06,188.00
2016,12,08,14,07,170.70
2016,12,08,14,08,158.20
2016,12,08,14,09,178.00
2016,12,08,14,10,208.30
2016,12,08,14,11,215.10
2016,12,08,14,12,194.60
2016,12,08,14,13,183.60
2016,12,08,14,14,183.00
2016,12,08,14,15,179.50
2016,12,08,14,16,164.60
2016,12,08,14,17,163.70
2016,12,08,14,18,174.50
2016,12,08,14,19,203.90
2016,12,08,14,20,218.00
2016,12,08,14,21,116.40
2016,12,08,14,22,96.00
2016,12,08,14,23,107.00
2016,12,08,14,24,110.20
2016,12,08,14,25,116.00
2016,12,08,14,26,116.00
2016,12,08,14,27,179.00
2016,12,08,14,28,189.80
2016,12,08,14,29,184.10
2016,12,08,14,30,196.60
2016,12,08,14,31,212.60
2016,12,08,14,32,216.00
2016,12,08,14,33,210.00
2016,12,08,14,34,193.40
2016,12,08,14,35,173.60
2016,12,08,14,36,139.30
2016,12,08,14,37,113.20
2016,12,08,14,38,112.90
2016,12,08,14,39,118.20
2016,12,08,14,40,127.00
2016,12,08,14,41,122.10
2016,12,08,14,42,109.60
2016,12,08,14,43,108.20
2016,12,08,14,44,103.90
2016,12,08,14,45,119.00
2016,12,08,14,46,135.90
2016,12,08,14,47,142.40
2016,12,08,14,48,136.20
2016,12,08,14,49,116.80
2016,12,08,14,50,98.40
2016,12,08,14,51,89.20
2016,12,08,14,52,85.40
2016,12,08,14,53,83.60
2016,12,08,14,54,83.00
2016,12,08,14,55,81.60
2016,12,08,14,56,79.30
2016,12,08,14,57,77.10
2016,12,08,14,58,75.60
2016,12,08,14,59,73.30
2016,12,08,15,00,71.10
2016,12,08,15,01,70.00
2016,12,08,15,02,69.30
2016,12,08,15,03,67.30
2016,12,08,15,04,67.00
2016,12,08,15,05,65.90
2016,12,08,15,06,62.00
2016,12,08,15,07,61.10
2016,12,08,15,08,60.00
2016,12,08,15,09,58.60
2016,12,08,15,10,56.40
2016,12,08,15,11,54.10
2016,12,08,15,12,53.00
2016,12,08,15,13,52.30
2016,12,08,15,14,51.00
2016,12,08,15,15,49.90
2016,12,08,15,16,49.00
2016,12,08,15,17,47.30
2016,12,08,15,18,46.00
2016,12,08,15,19,45.60
2016,12,08,15,20,43.30
2016,12,08,15,21,42.00
2016,12,08,15,22,40.80
2016,12,08,15,23,39.30
2016,12,08,15,24,39.00
2016,12,08,15,25,37.10
2016,12,08,15,26,36.60
2016,12,08,15,27,34.30
2016,12,08,15,28,33.00
2016,12,08,15,29,33.00
2016,12,08,15,30,32.30
2016,12,08,15,31,32.00
2016,12,08,15,32,31.90
2016,12,08,15,33,30.00
2016,12,08,15,34,30.00
2016,12,08,15,35,30.00
2016,12,08,15,36,30.00
2016,12,08,15,37,30.00
2016,12,08,15,38,30.00
2016,12,08,15,39,28.10
2016,12,08,15,40,28.00
2016,12,08,15,41,28.00
2016,12,08,15,42,28.00
2016,12,08,15,43,26.90
2016,12,08,15,44,26.00
2016,12,08,15,45,26.00
2016,12,08,15,46,25.90
2016,12,08,15,47,25.00
2016,12,08,15,48,25.00
2016,12,08,15,49,24.10
2016,12,08,15,50,23.00
2016,12,08,15,51,21.60
2016,12,08,15,52,21.00
2016,12,08,15,53,20.80
2016,12,08,15,54,19.00
2016,12,08,15,55,19.00
2016,12,08,15,56,18.50
2016,12,08,15,57,18.00
2016,12,08,15,58,18.00
2016,12,08,15,59,16.40
2016,12,08,16,00,15.90
2016,12,08,16,01,14.00
2016,12,08,16,02,14.00
2016,12,08,16,03,13.10
2016,12,08,16,04,12.00
2016,12,08,16,05,11.30
2016,12,08,16,06,11.00
2016,12,08,16,07,10.80
2016,12,08,16,08,9.00
2016,12,08,16,09,8.30
2016,12,08,16,10,7.00
2016,12,08,16,11,7.00
2016,12,08,16,12,5.60
2016,12,08,16,13,5.00
2016,12,08,16,14,0.20
2016,12,08,16,15,0.00
2016,12,08,16,16,0.00
2016,12,08,16,17,0.00
2016,12,08,16,18,0.00
2016,12,08,16,19,0.00
2016,12,08,16,20,0.00
2016,12,08,16,21,0.00
2016,12,08,16,22,0.00
2016,12,08,16,23,0.00
2016,12,08,16,24,0.00
2016,12,08,16,25,0.00
2016,12,08,16,26,0.00
2016,12,08,16,27,0.00
2016,12,08,16,28,0.00
2016,12,08,16,29,0.00
2016,12,08,16,30,0.00
2016,12,08,16,31,0.00
2016,12,08,16,32,0.00
2016,12,08,16,33,0.00
2016,12,08,16,34,0.00
2016,12,08,16,35,0.00
2016,12,08,16,36,0.00
2016,12,08,16,37,0.00
2016,12,08,16,38,0.00
2016,12,08,16,39,0.00
2016,12,08,16,40,0.00
2016,12,08,16,41,0.00
2016,12,08,16,42,0.00
2016,12,08,16,43,0.00
2016,12,08,16,44,0.00
2016,12,08,16,45,0.00
2016,12,08,16,46,0.00
2016,12,08,16,47,0.00
2016,12,08,16,48,0.00
2016,12,08,16,49,0.00
2016,12,08,16,50,0.00
2016,12,08,16,51,0.00
2016,12,08,16,52,0.00
2016,12,08,16,53,0.00
2016,12,08,16,54,0.00
2016,12,08,16,55,0.00
2016,12,08,16,56,0.00
2016,12,08,16,57,0.00
2016,12,08,16,58,0.00
2016,12,08,16,59,0.00
2016,12,08,17,00,0.00
2016,12,08,17,01,0.00
2016,12,08,17,02,0.00
2016,12,08,17,03,0.00
2016,12,08,17,04,0.00
2016,12,08,17,05,0.00
2016,12,08,17,06,0.00
2016,12,08,17,07,0.00
2016,12,08,17,08,0.00
2016,12,08,17,09,0.00
2016,12,08,17,10,0.00
2016,12,08,17,11,0.00
2016,12,08,17,12,0.00
2016,12,08,17,13,0.00
2016,12,08,17,14,0.00
2016,12,08,17,15,0.00
2016,12,08,17,16,0.00
2016,12,08,17,17,0.00
2016,12,08,17,18,0.00
2016,12,08,17,19,0.00
2016,12,08,17,20,0.00
2016,12,08,17,21,0.00
2016,12,08,17,22,0.00
2016,12,08,17,23,0.00
2016,12,08,17,24,0.00
2016,12,08,17,25,0.00
2016,12,08,17,26,0.00
2016,12,08,17,27,0.00
2016,12,08,17,28,0.00
2016,12,08,17,29,0.00
2016,12,08,17,30,0.00
2016,12,08,17,31,0.00
2016,12,08,17,32,0.00